When you browse on this site, cookies collect data to enhance your experience and personalize the content and advertising you see.
Visit our Privacy Policy to learn more. By continuing to use the site, you agree to this use of cookies and data.
  • en Suisse
  • Liste des pays
  • À 7 jours
  • Température de l'eau
  • Carte satellitaire
  • Carte météo
  • Widgets météo
  • user-avatar
    Se connecter

    Météo par heure à Andorre-la-Vieille

    Ce jour, 21 Mars, Jeudi

    Heure Température Précipitation Vent Pression Humidité
    00:00 -5°C° 0 mm 2 m/s 627 mmHg 73%
    01:00 -5°C° 0 mm 2 m/s 627 mmHg 74%
    02:00 -5°C° 0 mm 2 m/s 626 mmHg 74%
    03:00 -5°C° 0 mm 2 m/s 626 mmHg 74%
    04:00 -3°C° 0 mm 1 m/s 626 mmHg 74%
    05:00 -3°C° 0 mm 1 m/s 626 mmHg 74%
    06:00 -5°C° 0 mm 2 m/s 626 mmHg 75%
    07:00 0°C° 0 mm 1 m/s 628 mmHg 64%
    08:00 +2°C° 0 mm 1 m/s 629 mmHg 53%
    09:00 +5°C° 0 mm 1 m/s 630 mmHg 42%
    10:00 +6°C° 0 mm 1 m/s 630 mmHg 39%
    11:00 +8°C° 0 mm 1 m/s 631 mmHg 36%
    12:00 +9°C° 0 mm 1 m/s 631 mmHg 33%
    13:00 +9°C° 0 mm 1 m/s 631 mmHg 34%
    14:00 +9°C° 0 mm 1 m/s 630 mmHg 35%
    15:00 +9°C° 0 mm 1 m/s 630 mmHg 36%
    16:00 +7°C° 0 mm 1 m/s 629 mmHg 43%
    17:00 +5°C° 0 mm 1 m/s 628 mmHg 50%
    18:00 +1°C° 0 mm 0 m/s 627 mmHg 56%
    19:00 +2°C° 0 mm 1 m/s 627 mmHg 57%
    20:00 +1°C° 0 mm 1 m/s 628 mmHg 58%
    21:00 0°C° 0 mm 1 m/s 628 mmHg 59%
    22:00 0°C° 0 mm 1 m/s 628 mmHg 56%
    23:00 0°C° 0 mm 1 m/s 628 mmHg 54%

    Demain, 22 Mars, Vendredi

    Heure Température Précipitation Vent Pression Humidité
    00:00 0°C° 0 mm 1 m/s 628 mmHg 52%
    01:00 0°C° 0 mm 1 m/s 628 mmHg 51%
    02:00 0°C° 0 mm 1 m/s 627 mmHg 49%
    03:00 0°C° 0 mm 1 m/s 627 mmHg 48%
    04:00 0°C° 0 mm 1 m/s 627 mmHg 49%
    05:00 0°C° 0 mm 1 m/s 627 mmHg 49%
    06:00 0°C° 0 mm 1 m/s 628 mmHg 50%
    07:00 +3°C° 0 mm 1 m/s 629 mmHg 47%
    08:00 +6°C° 0 mm 1 m/s 630 mmHg 43%
    09:00 +9°C° 0 mm 1 m/s 631 mmHg 40%
    10:00 +10°C° 0 mm 1 m/s 632 mmHg 39%
    11:00 +11°C° 0 mm 1 m/s 632 mmHg 37%
    12:00 +12°C° 0 mm 1 m/s 632 mmHg 36%
    13:00 +12°C° 0 mm 1 m/s 632 mmHg 38%
    14:00 +12°C° 0 mm 1 m/s 631 mmHg 40%
    15:00 +11°C° 0 mm 1 m/s 631 mmHg 42%
    16:00 +10°C° 0.1 mm 1 m/s 630 mmHg 48%
    17:00 +8°C° 0.1 mm 1 m/s 630 mmHg 55%
    18:00 +6°C° 0.1 mm 1 m/s 629 mmHg 62%
    19:00 +5°C° 0 mm 1 m/s 629 mmHg 65%
    20:00 +4°C° 0 mm 1 m/s 629 mmHg 69%
    21:00 +3°C° 0 mm 1 m/s 628 mmHg 72%
    22:00 +3°C° 0 mm 1 m/s 628 mmHg 72%
    23:00 +3°C° 0 mm 1 m/s 628 mmHg 71%

    Après-demain, 23 Mars, Samedi

    Heure Température Précipitation Vent Pression Humidité
    00:00 +3°C° 0 mm 1 m/s 628 mmHg 71%
    01:00 +3°C° 0 mm 1 m/s 628 mmHg 71%
    02:00 +2°C° 0 mm 1 m/s 628 mmHg 70%
    03:00 +2°C° 0 mm 1 m/s 628 mmHg 70%
    04:00 +2°C° 0 mm 1 m/s 628 mmHg 70%
    05:00 +2°C° 0 mm 1 m/s 627 mmHg 70%
    06:00 +2°C° 0 mm 1 m/s 627 mmHg 70%
    07:00 +5°C° 0 mm 1 m/s 628 mmHg 61%
    08:00 +8°C° 0 mm 1 m/s 630 mmHg 52%
    09:00 +10°C° 0 mm 1 m/s 631 mmHg 43%
    10:00 +12°C° 0 mm 1 m/s 631 mmHg 40%
    11:00 +13°C° 0 mm 1 m/s 631 mmHg 37%
    12:00 +14°C° 0 mm 1 m/s 632 mmHg 34%
    13:00 +14°C° 0 mm 1 m/s 631 mmHg 36%
    14:00 +13°C° 0 mm 1 m/s 630 mmHg 38%
    15:00 +13°C° 0 mm 1 m/s 630 mmHg 39%
    16:00 +11°C° 0 mm 1 m/s 629 mmHg 48%
    17:00 +9°C° 0 mm 1 m/s 628 mmHg 56%
    18:00 +7°C° 0 mm 1 m/s 628 mmHg 64%
    19:00 +6°C° 0 mm 1 m/s 628 mmHg 69%
    20:00 +5°C° 0 mm 1 m/s 627 mmHg 73%
    21:00 +4°C° 0 mm 1 m/s 627 mmHg 77%
    22:00 +4°C° 0 mm 1 m/s 627 mmHg 78%
    23:00 +4°C° 0 mm 1 m/s 627 mmHg 78%

    24 Mars, Dimanche

    Heure Température Précipitation Vent Pression Humidité
    00:00 +3°C° 0 mm 1 m/s 627 mmHg 79%
    01:00 +3°C° 0 mm 1 m/s 627 mmHg 78%
    02:00 +3°C° 0 mm 1 m/s 627 mmHg 78%
    03:00 +3°C° 0 mm 1 m/s 626 mmHg 78%
    04:00 +3°C° 0 mm 1 m/s 626 mmHg 77%
    05:00 +3°C° 0 mm 1 m/s 626 mmHg 77%
    06:00 +3°C° 0 mm 1 m/s 626 mmHg 77%
    07:00 +4°C° 0 mm 0 m/s 628 mmHg 68%
    08:00 +7°C° 0 mm 0 m/s 629 mmHg 58%
    09:00 +10°C° 0 mm 0 m/s 630 mmHg 49%
    10:00 +11°C° 0 mm 0 m/s 630 mmHg 46%
    11:00 +13°C° 0 mm 1 m/s 631 mmHg 42%
    12:00 +14°C° 0 mm 1 m/s 631 mmHg 39%
    13:00 +13°C° 0.1 mm 1 m/s 630 mmHg 44%
    14:00 +12°C° 0.1 mm 1 m/s 629 mmHg 48%
    15:00 +11°C° 0.1 mm 1 m/s 628 mmHg 53%
    16:00 +10°C° 0.1 mm 1 m/s 628 mmHg 59%
    17:00 +8°C° 0.1 mm 1 m/s 628 mmHg 66%
    18:00 +7°C° 0.1 mm 1 m/s 627 mmHg 73%
    19:00 +7°C° 0 mm 1 m/s 627 mmHg 77%
    20:00 +6°C° 0 mm 1 m/s 627 mmHg 82%
    21:00 +5°C° 0 mm 1 m/s 627 mmHg 87%
    22:00 +4°C° 0 mm 1 m/s 627 mmHg 88%
    23:00 +4°C° 0 mm 1 m/s 627 mmHg 90%

    25 Mars, Lundi

    Heure Température Précipitation Vent Pression Humidité
    00:00 +4°C° 0 mm 1 m/s 626 mmHg 91%
    01:00 +3°C° 0 mm 1 m/s 626 mmHg 91%
    02:00 +3°C° 0 mm 1 m/s 626 mmHg 91%
    03:00 +3°C° 0 mm 1 m/s 626 mmHg 91%
    04:00 +3°C° 0 mm 1 m/s 626 mmHg 91%
    05:00 +2°C° 0 mm 1 m/s 626 mmHg 90%
    06:00 +2°C° 0 mm 1 m/s 626 mmHg 89%
    07:00 +5°C° 0 mm 1 m/s 627 mmHg 77%
    08:00 +7°C° 0 mm 1 m/s 628 mmHg 65%
    09:00 +10°C° 0 mm 1 m/s 629 mmHg 53%
    10:00 +11°C° 0 mm 1 m/s 629 mmHg 49%
    11:00 +12°C° 0 mm 1 m/s 629 mmHg 44%
    12:00 +13°C° 0 mm 1 m/s 630 mmHg 40%
    13:00 +13°C° 0 mm 1 m/s 629 mmHg 44%
    14:00 +12°C° 0 mm 1 m/s 628 mmHg 47%
    15:00 +10°C° 0 mm 2 m/s 628 mmHg 51%
    16:00 +10°C° 0 mm 1 m/s 627 mmHg 59%
    17:00 +9°C° 0 mm 1 m/s 627 mmHg 67%
    18:00 +7°C° 0 mm 1 m/s 626 mmHg 76%
    19:00 +6°C° 0 mm 1 m/s 626 mmHg 81%
    20:00 +6°C° 0 mm 1 m/s 626 mmHg 85%
    21:00 +5°C° 0 mm 1 m/s 626 mmHg 90%
    22:00 +4°C° 0 mm 1 m/s 626 mmHg 90%
    23:00 +3°C° 0 mm 1 m/s 626 mmHg 90%

    26 Mars, Mardi

    Heure Température Précipitation Vent Pression Humidité
    00:00 +2°C° 0 mm 1 m/s 626 mmHg 90%
    01:00 +2°C° 0 mm 1 m/s 626 mmHg 84%
    02:00 +2°C° 0 mm 1 m/s 625 mmHg 79%
    03:00 +2°C° 0 mm 1 m/s 625 mmHg 74%
    04:00 +2°C° 0 mm 1 m/s 625 mmHg 70%
    05:00 +2°C° 0 mm 1 m/s 625 mmHg 66%
    06:00 +1°C° 0 mm 2 m/s 625 mmHg 61%
    07:00 +5°C° 0 mm 1 m/s 627 mmHg 51%
    08:00 +8°C° 0 mm 1 m/s 628 mmHg 41%
    09:00 +11°C° 0 mm 1 m/s 629 mmHg 30%
    10:00 +12°C° 0 mm 1 m/s 630 mmHg 29%
    11:00 +14°C° 0 mm 1 m/s 630 mmHg 28%
    12:00 +15°C° 0 mm 1 m/s 630 mmHg 27%
    13:00 +15°C° 0 mm 1 m/s 630 mmHg 30%
    14:00 +15°C° 0 mm 1 m/s 629 mmHg 33%
    15:00 +14°C° 0 mm 1 m/s 629 mmHg 36%
    16:00 +12°C° 0 mm 1 m/s 628 mmHg 45%
    17:00 +10°C° 0 mm 1 m/s 627 mmHg 55%
    18:00 +8°C° 0 mm 1 m/s 626 mmHg 65%
    19:00 +7°C° 0 mm 1 m/s 626 mmHg 70%
    20:00 +5°C° 0 mm 0 m/s 626 mmHg 75%
    21:00 +4°C° 0 mm 0 m/s 626 mmHg 80%
    22:00 +3°C° 0 mm 0 m/s 626 mmHg 82%
    23:00 +4°C° 0 mm 1 m/s 626 mmHg 84%
    Voir plus